Weather History for Douglas, WY

Change the Weather History Date:

Monday, December 17, 2012

  Actual Average Record
Temperature  
Mean Temperature 32 °F 23 °F  
Max Temperature 50 °F 37 °F 58 °F (2013)
Min Temperature 13 °F 10 °F -7 °F (2008)
Degree Days  
Heating Degree Days 33 42  
Month to date heating degree days 443 689  
Since 1 July heating degree days 1990 2511  
Cooling Degree Days 0 0  
Month to date cooling degree days 0 0  
Year to date cooling degree days 831 486  
Moisture  
Dew Point 17 °F    
Average Humidity 54    
Maximum Humidity 74    
Minimum Humidity 34    
Precipitation  
Precipitation T in 0.02 in 0.10 in (2006)
Month to date precipitation T 0.24  
Year to date precipitation 5.26 13.23  
Sea Level Pressure  
Sea Level Pressure 29.55 in    
Wind  
Wind Speed 18 mph (West)    
Max Wind Speed 43 mph    
Max Gust Speed 52 mph    
Visibility 10 miles    
Events      
T = Trace of Precipitation, MM = Missing Value Source: NWS Daily Summary

Daily Weather History Graph

Daily Weather History Graph

Search for Another Location

Airport:

Trip Planner

Search our weather history database for the weather conditions in past years. The results will help you decide how hot, cold, wet, or windy it might be!

Date:

Astronomy

Dec. 17, 2012 Rise Set
Actual Time 7:26 AM MST 4:29 PM MST
Civil Twilight 6:54 AM MST 5:01 PM MST
Nautical Twilight 6:18 AM MST 5:37 PM MST
Astronomical Twilight 5:44 AM MST 6:11 PM MST
Moon 10:30 AM MST (12/17) 10:00 PM MST (12/17)
Length of Visible Light 10h 06m
Length of Day
9h 02m
Waxing Crescent, 25% of the Moon is Illuminated
Dec 17
Waxing Crescent
Dec 19
First Quarter
Dec 28
Full
Jan 4
Last Quarter
Jan 11
New

Hourly Weather History & Observations

Time (MST) Temp. Windchill Dew Point Humidity Pressure Visibility Wind Dir Wind Speed Gust Speed Precip Events Conditions
12:53 AM 14.0 °F 6.5 °F 7.0 °F 74% 29.77 in 10.0 mi North 4.6 mph - N/A   Clear
1:53 AM 18.0 °F 11.1 °F 10.0 °F 71% 29.73 in 10.0 mi NNW 4.6 mph - N/A   Clear
2:53 AM 17.1 °F 10.0 °F 10.0 °F 74% 29.72 in 10.0 mi East 4.6 mph - N/A   Clear
3:53 AM 18.0 °F 12.7 °F 10.9 °F 74% 29.67 in 10.0 mi SSE 3.5 mph - N/A   Clear
4:53 AM 24.1 °F - 14.0 °F 65% 29.63 in 10.0 mi Calm Calm - N/A   Clear
5:53 AM 34.0 °F 25.5 °F 18.0 °F 52% 29.59 in 10.0 mi West 11.5 mph 20.7 mph N/A   Mostly Cloudy
6:53 AM 34.0 °F 24.6 °F 17.1 °F 50% 29.57 in 10.0 mi WSW 13.8 mph - N/A   Clear
7:53 AM 33.1 °F 26.9 °F 18.0 °F 54% 29.56 in 10.0 mi WSW 6.9 mph - N/A   Clear
8:53 AM 39.0 °F 29.9 °F 19.0 °F 45% 29.52 in 10.0 mi West 17.3 mph 24.2 mph N/A   Clear
9:53 AM 43.0 °F 32.7 °F 19.9 °F 40% 29.51 in 10.0 mi West 28.8 mph 40.3 mph N/A   Clear
10:53 AM 45.0 °F 36.2 °F 21.0 °F 39% 29.50 in 10.0 mi West 24.2 mph 38.0 mph N/A   Clear
11:53 AM 48.0 °F - 21.0 °F 34% 29.44 in 10.0 mi West 36.8 mph 49.5 mph N/A   Clear
12:53 PM 48.9 °F - 21.0 °F 33% 29.44 in 10.0 mi West 39.1 mph 49.5 mph N/A   Clear
1:53 PM 48.9 °F - 21.9 °F 35% 29.42 in 10.0 mi West 33.4 mph 50.6 mph N/A   Clear
2:53 PM 48.9 °F - 21.9 °F 35% 29.44 in 10.0 mi West 28.8 mph 41.4 mph N/A   Clear
5:53 PM 39.9 °F 31.4 °F 24.1 °F 53% 29.46 in 10.0 mi West 16.1 mph 25.3 mph 0.00 in   Overcast
6:53 PM 37.9 °F 29.6 °F 24.1 °F 57% 29.46 in 10.0 mi West 13.8 mph - N/A   Clear
7:53 PM 41.0 °F 31.1 °F 19.0 °F 41% 29.47 in 10.0 mi West 23.0 mph - N/A   Scattered Clouds
8:53 PM 37.9 °F 29.2 °F 14.0 °F 38% 29.49 in 10.0 mi NW 15.0 mph 25.3 mph N/A   Scattered Clouds
9:53 PM 35.1 °F 24.8 °F 14.0 °F 42% 29.51 in 10.0 mi NW 17.3 mph 26.5 mph N/A   Clear
10:53 PM 30.9 °F 20.2 °F 12.0 °F 46% 29.55 in 10.0 mi NW 15.0 mph - N/A   Clear
11:53 PM 27.0 °F 15.6 °F 10.9 °F 51% 29.57 in 10.0 mi NW 13.8 mph - N/A   Clear